EW0585 Weather Reports


time (UTC)temp
C
wind
direction
speed
KPH
gust
KPH
rain 1hr
cm
rain 24hr
cm
rain mn
cm
humidity
%
barometer
mb
20260507094503 9 265 0.0 0.0 0.00 0.00 0.00 46 1011.1
20260507093002 9 265 0.0 0.0 0.00 0.00 0.00 48 1011.3
20260507091501 9 265 0.0 0.0 0.00 0.00 0.00 48 1011.4
20260507090059 9 265 0.0 0.0 0.00 0.00 0.00 48 1011.6
20260507084610 9 265 0.0 0.0 0.00 0.00 0.00 48 1011.7
20260507083056 9 265 0.0 0.0 0.00 0.00 0.00 47 1011.8
20260507081600 9 265 0.0 0.0 0.00 0.00 0.00 47 1011.9
20260507080053 9 265 0.0 0.0 0.00 0.00 0.00 47 1012.0
20260507074558 9 265 0.0 0.0 0.00 0.00 0.00 48 1011.9
20260507073054 9 265 0.0 0.0 0.00 0.00 0.00 49 1011.8
20260507071551 9 265 0.0 0.0 0.00 0.00 0.00 50 1011.8
20260507070049 9 265 0.0 0.0 0.00 0.00 0.00 51 1011.8
20260507064551 10 265 0.0 0.0 0.00 0.00 0.00 51 1012.0
20260507063049 10 265 0.0 0.0 0.00 0.00 0.00 52 1012.0
20260507061548 10 265 0.0 0.0 0.00 0.00 0.00 53 1012.0
20260507060059 10 265 0.0 0.0 0.00 0.00 0.00 54 1012.2
20260507054546 10 265 0.0 0.0 0.00 0.00 0.00 54 1012.2
20260507053047 10 265 0.0 0.0 0.00 0.00 0.00 53 1012.2
20260507051546 10 265 0.0 0.0 0.00 0.00 0.00 52 1012.3
20260507050046 10 265 0.0 0.0 0.00 0.00 0.00 49 1012.3
20260507044555 10 265 0.0 0.0 0.00 0.00 0.00 46 1012.3
20260507043059 11 265 0.0 0.0 0.00 0.00 0.00 43 1012.3
20260507041543 11 265 0.0 3.2 0.00 0.00 0.00 42 1012.2
20260507040043 11 266 0.0 0.0 0.00 0.00 0.00 42 1012.2
20260507034543 11 266 0.0 0.0 0.00 0.00 0.00 42 1012.0
20260507033043 11 266 0.0 0.0 0.00 0.00 0.00 41 1011.8
20260507031546 12 266 0.0 0.0 0.00 0.00 0.00 39 1011.8
20260507030042 12 266 0.0 0.0 0.00 0.00 0.00 38 1011.7
20260507024544 13 267 3.2 4.8 0.00 0.00 0.00 36 1011.6
20260507023048 13 281 0.0 3.2 0.00 0.00 0.00 36 1011.5
20260507021541 13 11 0.0 0.0 0.00 0.00 0.00 35 1011.6
20260507020049 15 12 0.0 0.0 0.00 0.00 0.00 32 1011.5
20260507014540 15 13 0.0 3.2 0.00 0.00 0.00 31 1011.7
20260507013039 16 33 0.0 0.0 0.00 0.00 0.00 30 1011.6
20260507011545 16 31 0.0 0.0 0.00 0.00 0.00 29 1011.5
20260507010038 16 33 0.0 8.0 0.00 0.00 0.00 28 1011.6
20260507004539 16 13 0.0 9.7 0.00 0.00 0.00 29 1011.8
20260507003036 16 25 1.6 12.9 0.00 0.00 0.00 30 1011.8
20260507001604 16 30 3.2 9.7 0.00 0.00 0.00 29 1011.8
20260507000041 16 12 0.0 12.9 0.00 0.00 0.00 31 1011.8
20260506234534 16 11 0.0 11.3 0.00 0.00 0.00 31 1011.8
20260506233034 16 69 0.0 11.3 0.00 0.00 0.00 30 1011.8
20260506231532 16 14 3.2 11.3 0.00 0.00 0.00 31 1011.9
20260506230049 16 15 3.2 11.3 0.00 0.00 0.00 35 1012.1
20260506224531 16 17 0.0 11.3 0.00 0.00 0.00 35 1012.2
20260506223033 17 33 0.0 14.5 0.00 0.00 0.00 37 1012.4
20260506221530 16 17 0.0 12.9 0.00 0.00 0.00 39 1012.5
20260506220034 16 29 0.0 12.9 0.00 0.00 0.00 38 1012.6
20260506214528 16 33 4.8 16.1 0.00 0.00 0.00 37 1012.9
20260506213027 17 360 0.0 3.2 0.00 0.00 0.00 37 1012.9
20260506211524 16 12 0.0 9.7 0.00 0.00 0.00 37 1013.1
20260506210044 16 15 0.0 12.9 0.00 0.00 0.00 38 1013.3
20260506204521 15 15 0.0 16.1 0.00 0.00 0.00 41 1013.3
20260506203021 15 22 1.6 14.5 0.00 0.00 0.00 40 1013.4
20260506201522 15 5 0.0 8.0 0.00 0.00 0.00 38 1013.6
20260506200020 15 15 4.8 11.3 0.00 0.00 0.00 39 1013.6
20260506194518 15 59 3.2 8.0 0.00 0.00 0.00 39 1013.7
20260506193025 15 92 0.0 9.7 0.00 0.00 0.00 39 1013.7
20260506191516 15 31 0.0 17.7 0.00 0.00 0.00 40 1013.8
20260506190016 15 103 0.0 11.3 0.00 0.00 0.00 39 1013.9
20260506184514 15 24 0.0 9.7 0.00 0.00 0.00 41 1013.9
20260506183014 15 29 1.6 8.0 0.00 0.00 0.00 40 1014.0
20260506181512 15 355 0.0 8.0 0.00 0.00 0.00 42 1014.2
20260506180011 14 253 0.0 9.7 0.00 0.00 0.00 41 1014.1
20260506174510 14 324 1.6 9.7 0.00 0.00 0.00 41 1014.1
20260506173009 15 348 0.0 16.1 0.00 0.00 0.00 41 1014.0
20260506171509 14 350 0.0 8.0 0.00 0.00 0.00 41 1014.0
20260506170007 14 350 1.6 9.7 0.00 0.00 0.00 41 1014.0
20260506164522 14 24 0.0 1.6 0.00 0.00 0.00 40 1013.9
20260506163009 13 24 0.0 4.8 0.00 0.00 0.00 44 1013.7
20260506161504 13 24 0.0 8.0 0.00 0.00 0.00 46 1013.8
20260506160002 13 26 0.0 3.2 0.00 0.00 0.00 42 1013.7
20260506154559 13 204 0.0 0.0 0.00 0.00 0.00 40 1013.6
20260506153054 12 96 0.0 3.2 0.00 0.00 0.00 41 1013.5
20260506151554 12 109 0.0 4.8 0.00 0.00 0.00 44 1013.5
20260506150059 11 140 0.0 0.0 0.00 0.00 0.00 44 1013.5
20260506144542 10 123 0.0 0.0 0.00 0.00 0.00 50 1013.4
20260506143040 9 123 0.0 0.0 0.00 0.00 0.00 54 1013.4
20260506141541 7 135 0.0 0.0 0.00 0.00 0.00 55 1013.4
20260506140030 6 131 0.0 0.0 0.00 0.00 0.00 56 1013.3
20260506134525 5 131 0.0 0.0 0.00 0.00 0.00 59 1013.2
20260506133024 5 131 0.0 0.0 0.00 0.00 0.00 61 1013.0
20260506131519 5 131 0.0 0.0 0.00 0.00 0.00 60 1012.8
20260506130020 5 136 0.0 0.0 0.00 0.00 0.00 59 1012.6
20260506124515 4 136 0.0 0.0 0.00 0.00 0.00 59 1012.5
20260506123015 4 136 0.0 0.0 0.00 0.00 0.00 59 1012.4
20260506121514 4 136 0.0 0.0 0.00 0.00 0.00 58 1012.4
20260506120020 4 136 0.0 0.0 0.00 0.00 0.00 53 1012.2
20260506114509 3 136 0.0 0.0 0.00 0.00 0.00 54 1012.1
20260506113007 3 136 0.0 0.0 0.00 0.00 0.00 53 1012.0
20260506111505 3 136 0.0 0.0 0.00 0.00 0.00 55 1011.9
20260506110006 3 136 0.0 0.0 0.00 0.00 0.00 57 1011.9
20260506104501 3 136 0.0 0.0 0.00 0.00 0.00 58 1011.8
20260506103059 2 136 0.0 0.0 0.00 0.00 0.00 64 1011.8
20260506101558 2 136 0.0 0.0 0.00 0.00 0.00 66 1011.6
20260506100111 2 136 0.0 0.0 0.00 0.00 0.00 66 1011.5